Kalaeloa, HI

8:53 AM HST on June 26, 2017 (GMT -1000)
Kalaeloa (John Rodgers Field)

Weather History for PHJR - January, 2014

Change the Weather History Date:

Monday, January 6, 2014

  Actual Average (PHHI) Record (PHHI)
Temperature  
Mean Temperature 68 °F -  
Max Temperature 75 °F 74 °F 78 °F (2004)
Min Temperature 62 °F 60 °F 55 °F (1997)
Cooling Degree Days 4    
Growing Degree Days 18 (Base 50)    
Moisture  
Dew Point 54 °F    
Average Humidity 62    
Maximum Humidity 80    
Minimum Humidity 45    
Precipitation  
Precipitation 0.00 in - - ()
Sea Level Pressure  
Sea Level Pressure 30.07 in    
Wind  
Wind Speed 5 mph (NE)    
Max Wind Speed 9 mph    
Max Gust Speed 16 mph    
Visibility 10 miles    
Events      
Averages and records for this station are not official NWS values.
T = Trace of Precipitation, MM = Missing Value Source: NWS Daily Summary

Daily Weather History Graph

Daily Weather History Graph

Search for Another Location

Airport or City:

Trip Planner

Search our weather history database for the weather conditions in past years. The results will help you decide how hot, cold, wet, or windy it might be!

Date:

Astronomy

Jan. 06, 2014 Rise Set
Actual Time 7:11 AM HST 6:05 PM HST
Civil Twilight 6:47 AM HST 6:29 PM HST
Nautical Twilight 6:19 AM HST 6:56 PM HST
Astronomical Twilight 5:52 AM HST 7:24 PM HST
Moon 11:21 AM HST (1/6) 11:58 PM HST (1/6)
Length of Visible Light 11h 42m
Length of Day
10h 53m
Waxing Crescent, 37% of the Moon is Illuminated
Jan 6
Waxing Crescent
Jan 7
First Quarter
Jan 15
Full
Jan 23
Last Quarter
Jan 30
New

Hourly Weather History & Observations

Time (HST) Temp. Dew Point Humidity Pressure Visibility Wind Dir Wind Speed Gust Speed Precip Events Conditions
12:53 AM 66.0 °F 55.0 °F 68% 30.04 in 10.0 mi Variable 5.8 mph - N/A   Clear
1:53 AM 64.9 °F 55.9 °F 73% 30.03 in 10.0 mi Variable 4.6 mph - N/A   Clear
2:53 AM 64.9 °F 55.0 °F 70% 30.03 in 10.0 mi Variable 5.8 mph - N/A   Clear
3:53 AM 64.9 °F 53.1 °F 65% 30.02 in 10.0 mi Variable 6.9 mph - N/A   Clear
4:53 AM 66.0 °F 54.0 °F 65% 30.04 in 10.0 mi Variable 5.8 mph - N/A   Clear
5:53 AM 64.9 °F 55.0 °F 70% 30.04 in 10.0 mi Variable 3.5 mph - N/A   Clear
6:53 AM 62.1 °F 55.9 °F 80% 30.05 in 10.0 mi Calm Calm - N/A   Clear
7:53 AM 64.0 °F 55.9 °F 75% 30.07 in 10.0 mi Calm Calm - N/A   Clear
8:53 AM 70.0 °F 57.0 °F 63% 30.09 in 10.0 mi Variable 3.5 mph - N/A   Clear
9:53 AM 73.0 °F 55.9 °F 55% 30.09 in 10.0 mi Variable 6.9 mph - N/A   Clear
10:53 AM 75.0 °F 54.0 °F 48% 30.10 in 10.0 mi Variable 6.9 mph - N/A   Clear
11:53 AM 75.0 °F 55.0 °F 50% 30.09 in 10.0 mi Variable 5.8 mph - N/A   Partly Cloudy
12:53 PM 75.9 °F 55.0 °F 48% 30.06 in 10.0 mi ENE 8.1 mph - N/A   Clear
1:53 PM 75.9 °F 54.0 °F 46% 30.03 in 10.0 mi NE 8.1 mph - N/A   Partly Cloudy
2:53 PM 75.9 °F 53.1 °F 45% 30.01 in 10.0 mi ENE 9.2 mph - N/A   Clear
3:53 PM 73.9 °F 52.0 °F 46% 30.03 in 10.0 mi Variable 6.9 mph 16.1 mph N/A   Clear
4:53 PM 73.0 °F 52.0 °F 48% 30.06 in 10.0 mi Variable 5.8 mph - N/A   Clear
5:53 PM 70.0 °F 54.0 °F 57% 30.09 in 10.0 mi Variable 4.6 mph - N/A   Partly Cloudy
6:53 PM 66.0 °F 54.0 °F 65% 30.10 in 10.0 mi Calm Calm - N/A   Clear
7:53 PM 63.0 °F 54.0 °F 72% 30.11 in 10.0 mi Calm Calm - N/A   Clear
8:53 PM 63.0 °F 54.0 °F 72% 30.11 in 10.0 mi Variable 3.5 mph - N/A   Clear
9:53 PM 64.9 °F 54.0 °F 68% 30.11 in 10.0 mi Variable 3.5 mph - N/A   Clear
10:53 PM 64.9 °F 54.0 °F 68% 30.12 in 10.0 mi Calm Calm - N/A   Clear
11:53 PM 64.0 °F 55.0 °F 73% 30.11 in 10.0 mi Calm Calm - N/A   Clear